Regional Weather Roundup
Issued by NWS

Home | Current Version | Previous Version | Text Only | Print | Product List | Glossary On
Versions: 1 2 3 4 5 6 7 8 9 10 11 12 13 14 15 16 17 18 19 20 21 22 23 24 25 26 27 28 29 30 31 32 33 34 35 36 37 38 39 40 41 42 43 44 45 46 47 48 49 50
000
ASUS46 KSEW 270810
RWRWA

WASHINGTON REGIONAL WEATHER ROUNDUP
NATIONAL WEATHER SERVICE SEATTLE WA
100 AM PDT FRI MAR 27 2015

NOTE:"FAIR" INDICATES FEW OR NO CLOUDS BELOW 12,000 FEET WITH NO
SIGNIFICANT WEATHER AND/OR OBSTRUCTIONS TO VISIBILITY.

WAZ505-507>509-270900-
SEATTLE, TACOMA, EVERETT, AND VICINITY

CITY           SKY/WX    TMP DP  RH WIND       PRES   REMARKS
EVERETT        PTCLDY    51  47  86 N3        30.13F
BOEING FIELD   PTCLDY    57  48  72 CALM      30.12F
RENTON         PTCLDY    55  49  80 NW5       30.11F
SEATAC AIRPORT PTCLDY    54  48  80 N8        30.13F
JBLM-MCCHORD   PTCLDY    47  47  99 CALM      30.12F
PUYALLUP       FAIR      48  48 100 CALM      30.12F
BREMERTON      MOCLDY    54  48  82 NE3       30.14F
JBLM-FT LEWIS  PTCLDY    47  47  99 SE3       30.11F
TACOMA NARROWS PTCLDY    53  48  83 N3        30.13F
$$

WAZ001-503-506-510-514-515-270900-
NORTH INTERIOR

CITY           SKY/WX    TMP DP  RH WIND       PRES   REMARKS
BELLINGHAM     CLEAR     49  47  93 CALM      30.13F
FRIDAY HARBOR  PTCLDY    47  45  93 CALM      30.14F
EASTSOUND      PTCLDY    48  48 100 CALM      30.12S
PORT ANGELES   MOCLDY    50  46  86 SW6       30.13F
NAS WHIDBEY    PTCLDY    52  47  83 SW3       30.14F
ARLINGTON      PTCLDY    46  43  87 CALM      30.14F
BURLINGTON       N/A     50  50 100 MISG        N/A
$$

WAZ020-022-039-040-504-511-512-270900-
SOUTHWEST INTERIOR

CITY           SKY/WX    TMP DP  RH WIND       PRES   REMARKS
SHELTON        MOCLDY    47  46  97 CALM      30.10F
OLYMPIA        PTCLDY    48  45  89 CALM      30.12F
CHEHALIS       FAIR      48  48 100 CALM      30.11F
KELSO          CLEAR     48  45  87 CALM      30.12F
VANCOUVER      CLEAR     48  45  89 CALM      30.10F
SCAPPOOSE, OR  CLEAR     47  45  93 W3        30.09F
PORTLAND, OR   CLEAR     52  49  89 CALM      30.10F
$$

WAZ021-516-517-270900-
WASHINGTON COAST

CITY           SKY/WX    TMP DP  RH WIND       PRES   REMARKS
FORKS          MOCLDY    47  47 100 E3        30.10F FOG
HOQUIAM        PTCLDY    50  49  96 CALM      30.11F
ASTORIA, OR    CLEAR     48  46  93 SE3       30.09F
$$

WAZ019-023-024-040-518-519-270900-
CASCADE MOUNTAINS AND COLUMBIA GORGE

CITY           SKY/WX    TMP DP  RH WIND       PRES   REMARKS
TROUTDALE, OR  CLEAR     51  47  86 E5        30.09F
THE DALLES, OR CLEAR     52  48  86 CALM      30.12S
$$

WAZ026-027-041>044-520-521-270900-
EAST SLOPES

CITY           SKY/WX    TMP DP  RH WIND       PRES   REMARKS
OMAK           PTCLDY    45  42  89 W5        30.17F
WENATCHEE      CLEAR     55  46  71 W10       30.15S
ELLENSBURG     CLEAR     48  43  82 CALM      30.15F
YAKIMA         CLEAR     51  46  83 W8        30.15S
$$

WAZ028-034-035-270900-
COLUMBIA BASIN

CITY           SKY/WX    TMP DP  RH WIND       PRES   REMARKS
EPHRATA        CLEAR     50  47  89 N9        30.15F
MOSES LAKE     CLEAR     48  46  93 N7        30.15F
PASCO          CLEAR     48  46  93 N3        30.13F
HERMISTON, OR  CLEAR     47  44  90 CALM      30.11F
$$

WAZ036>038-270900-
NORTHEAST WASHINGTON

CITY           SKY/WX    TMP DP  RH WIND       PRES   REMARKS
SPOKANE GEIGER PTCLDY    47  45  93 NE6       30.18F
SPOKANE FELTS  CLEAR     45  43  93 N3        30.19F
FAIRCHILD AFB  CLEAR     46  45  99 NE6       30.18F
COEURDALENE,ID CLEAR     43  39  87 E6        30.20F
DEER PARK      PTCLDY    40  40 100 NW3       30.20S FOG
$$

WAZ029>033-270900-
SOUTHEAST WASHINGTON

CITY           SKY/WX    TMP DP  RH WIND       PRES   REMARKS
PULLMAN        CLEAR     51  43  74 E10       30.19F
LEWISTON, ID   CLEAR     51  46  83 E7        30.17F
WALLA WALLA    CLEAR     56  45  66 E6        30.11F
PENDLETON, OR  CLEAR     51  46  83 E3        30.11F
$$


USA.gov is the U.S. government's official web portal to all federal, state and local government web resources and services.